Weather History for KHDN - August, 2013

Change the Weather History Date:

Tuesday, August 6, 2013

  Actual Average Record
Temperature  
Mean Temperature 66 °F -  
Max Temperature 80 °F 85 °F 97 °F (1979)
Min Temperature 51 °F 49 °F 38 °F (1962)
Growing Degree Days 16 (Base 50)    
Moisture  
Dew Point 45 °F    
Average Humidity 56    
Maximum Humidity 76    
Minimum Humidity 24    
Precipitation  
Precipitation 0.01 in - - ()
Sea Level Pressure  
Sea Level Pressure 30.22 in    
Wind  
Wind Speed 10 mph (ESE)    
Max Wind Speed 30 mph    
Max Gust Speed 44 mph    
Visibility 10 miles    
Events Thunderstorm    
Averages and records for this station are not official NWS values.
T = Trace of Precipitation, MM = Missing Value Source: NWS Daily Summary

Daily Weather History Graph

Daily Weather History Graph

Search for Another Location

Airport or City:

Trip Planner

Search our weather history database for the weather conditions in past years. The results will help you decide how hot, cold, wet, or windy it might be!

Date:

Astronomy

Aug. 06, 2013 Rise Set
Actual Time 6:11 AM MDT 8:17 PM MDT
Civil Twilight 5:41 AM MDT 8:47 PM MDT
Nautical Twilight 5:04 AM MDT 9:24 PM MDT
Astronomical Twilight 4:23 AM MDT 10:04 PM MDT
Moon 6:05 AM MDT (8/6) 7:53 PM MDT (8/6)
Length of Visible Light 15h 06m
Length of Day
14h 06m
Waning Crescent, 0% of the Moon is Illuminated
Aug 6
Waning Crescent
Aug 6
New
Aug 14
First Quarter
Aug 20
Full
Aug 28
Last Quarter

Hourly Weather History & Observations

Time (MDT) Temp. Dew Point Humidity Pressure Visibility Wind Dir Wind Speed Gust Speed Precip Events Conditions
12:15 AM 60.8 °F 44.6 °F 55% 30.23 in 10.0 mi East 10.4 mph - N/A   Clear
12:35 AM 59.0 °F 44.6 °F 59% 30.23 in 10.0 mi ESE 8.1 mph - N/A   Clear
12:55 AM 57.2 °F 44.6 °F 63% 30.23 in 10.0 mi ESE 5.8 mph - N/A   Clear
1:15 AM 55.4 °F 42.8 °F 63% 30.23 in 10.0 mi SE 11.5 mph - N/A   Clear
1:35 AM 55.4 °F 44.6 °F 67% 30.22 in 10.0 mi SE 8.1 mph - N/A   Clear
1:55 AM 55.4 °F 44.6 °F 67% 30.22 in 10.0 mi ESE 9.2 mph - N/A   Clear
2:15 AM 55.4 °F 44.6 °F 67% 30.23 in 10.0 mi East 6.9 mph - N/A   Clear
2:35 AM 55.4 °F 44.6 °F 67% 30.23 in 10.0 mi ESE 6.9 mph - N/A   Clear
2:55 AM 53.6 °F 44.6 °F 72% 30.23 in 10.0 mi ESE 6.9 mph - N/A   Clear
3:15 AM 51.8 °F 42.8 °F 71% 30.22 in 10.0 mi SE 8.1 mph - N/A   Clear
3:35 AM 51.8 °F 42.8 °F 71% 30.22 in 10.0 mi ESE 10.4 mph - N/A   Clear
3:55 AM 51.8 °F 44.6 °F 76% 30.22 in 10.0 mi ESE 8.1 mph - N/A   Clear
4:15 AM 53.6 °F 44.6 °F 72% 30.22 in 10.0 mi ESE 9.2 mph - N/A   Clear
4:35 AM 53.6 °F 44.6 °F 72% 30.21 in 10.0 mi SE 10.4 mph - N/A   Clear
4:55 AM 51.8 °F 44.6 °F 76% 30.22 in 10.0 mi ESE 8.1 mph - N/A   Clear
5:15 AM 51.8 °F 42.8 °F 71% 30.22 in 10.0 mi ESE 9.2 mph - N/A   Clear
5:35 AM 51.8 °F 44.6 °F 76% 30.22 in 10.0 mi SE 9.2 mph - N/A   Clear
5:55 AM 51.8 °F 44.6 °F 76% 30.22 in 10.0 mi ESE 12.7 mph - N/A   Clear
6:15 AM 51.8 °F 44.6 °F 76% 30.23 in 10.0 mi ESE 13.8 mph - N/A   Clear
6:55 AM 51.8 °F 44.6 °F 76% 30.23 in 10.0 mi ESE 11.5 mph - N/A   Clear
7:15 AM 53.6 °F 44.6 °F 72% 30.24 in 10.0 mi East 9.2 mph - N/A   Clear
7:35 AM 53.6 °F 44.6 °F 72% 30.24 in 10.0 mi East 8.1 mph - N/A   Clear
7:55 AM 55.4 °F 44.6 °F 67% 30.24 in 10.0 mi ESE 8.1 mph - N/A   Clear
8:15 AM 57.2 °F 44.6 °F 63% 30.24 in 10.0 mi ESE 9.2 mph - N/A   Clear
8:35 AM 59.0 °F 44.6 °F 59% 30.24 in 10.0 mi ESE 12.7 mph - N/A   Clear
8:55 AM 60.8 °F 46.4 °F 59% 30.24 in 10.0 mi ESE 11.5 mph - N/A   Clear
9:15 AM 62.6 °F 46.4 °F 55% 30.24 in 10.0 mi ESE 8.1 mph - N/A   Clear
9:35 AM 64.4 °F 46.4 °F 52% 30.24 in 10.0 mi East 9.2 mph - N/A   Clear
9:55 AM 66.2 °F 46.4 °F 49% 30.24 in 10.0 mi ESE 8.1 mph - N/A   Clear
10:15 AM 69.8 °F 46.4 °F 43% 30.24 in 10.0 mi East 8.1 mph - N/A   Clear
10:35 AM 71.6 °F 46.4 °F 41% 30.23 in 10.0 mi East 6.9 mph - N/A   Clear
11:15 AM 75.2 °F 44.6 °F 34% 30.22 in 10.0 mi East 4.6 mph - N/A   Clear
11:35 AM 75.2 °F 44.6 °F 34% 30.22 in 10.0 mi North 5.8 mph - N/A   Clear
12:15 PM 78.8 °F 44.6 °F 30% 30.20 in 10.0 mi NNW 8.1 mph - N/A   Clear
12:35 PM 78.8 °F 42.8 °F 28% 30.20 in 10.0 mi WNW 9.2 mph 16.1 mph N/A   Clear
12:55 PM 77.0 °F 42.8 °F 29% 30.20 in 10.0 mi West 10.4 mph - N/A Thunderstorm Clear
1:15 PM 78.8 °F 41.0 °F 26% 30.20 in 10.0 mi West 9.2 mph - N/A Thunderstorm Clear
1:35 PM 78.8 °F 39.2 °F 24% 30.19 in 10.0 mi WNW 10.4 mph - N/A   Clear
1:55 PM 80.6 °F 41.0 °F 24% 30.18 in 10.0 mi WSW 11.5 mph - N/A   Clear
2:15 PM 80.6 °F 41.0 °F 24% 30.18 in 10.0 mi SSE 20.7 mph 24.2 mph N/A   Clear
2:55 PM 75.2 °F 42.8 °F 31% 30.18 in 10.0 mi SSE 20.7 mph 27.6 mph N/A   Clear
3:15 PM 75.2 °F 42.8 °F 31% 30.18 in 10.0 mi SE 17.3 mph - N/A   Clear
3:35 PM 73.4 °F 44.6 °F 36% 30.18 in 10.0 mi SE 25.3 mph - N/A Thunderstorm Thunderstorm
3:55 PM 69.8 °F 48.2 °F 46% 30.22 in 4.0 mi SE 29.9 mph 43.7 mph N/A Thunderstorm Thunderstorm
4:15 PM 64.4 °F 46.4 °F 52% 30.21 in 9.0 mi South 13.8 mph 27.6 mph N/A Thunderstorm Thunderstorm
4:35 PM 64.4 °F 48.2 °F 56% 30.21 in 10.0 mi SSE 18.4 mph - 0.01 in Thunderstorm Thunderstorm
4:55 PM 64.4 °F 46.4 °F 52% 30.21 in 10.0 mi SSE 20.7 mph 27.6 mph 0.01 in Thunderstorm Clear
5:15 PM 64.4 °F 48.2 °F 56% 30.21 in 10.0 mi SSE 16.1 mph - N/A   Clear
5:35 PM 64.4 °F 48.2 °F 56% 30.21 in 10.0 mi SSE 18.4 mph 25.3 mph N/A   Clear
5:55 PM 64.4 °F 48.2 °F 56% 30.22 in 10.0 mi SSE 20.7 mph 25.3 mph N/A   Clear
6:55 PM 64.4 °F 48.2 °F 56% 30.21 in 10.0 mi SSE 9.2 mph - N/A   Clear
7:15 PM 66.2 °F 46.4 °F 49% 30.22 in 10.0 mi East 6.9 mph - N/A   Clear
7:35 PM 64.4 °F 46.4 °F 52% 30.21 in 10.0 mi ESE 9.2 mph - N/A   Clear
7:55 PM 64.4 °F 46.4 °F 52% 30.20 in 10.0 mi ESE 11.5 mph - N/A   Clear
8:15 PM 64.4 °F 46.4 °F 52% 30.20 in 10.0 mi ESE 9.2 mph - N/A   Clear
8:35 PM 62.6 °F 46.4 °F 55% 30.20 in 10.0 mi ENE 9.2 mph - N/A   Clear
8:55 PM 62.6 °F 46.4 °F 55% 30.20 in 10.0 mi East 9.2 mph - N/A   Clear
9:15 PM 60.8 °F 46.4 °F 59% 30.21 in 10.0 mi East 10.4 mph - N/A   Clear
9:35 PM 60.8 °F 46.4 °F 59% 30.21 in 10.0 mi East 13.8 mph - N/A   Clear
9:55 PM 60.8 °F 44.6 °F 55% 30.22 in 10.0 mi East 16.1 mph - N/A   Clear
10:15 PM 60.8 °F 44.6 °F 55% 30.22 in 10.0 mi ESE 10.4 mph - N/A   Clear
10:35 PM 57.2 °F 44.6 °F 63% 30.23 in 10.0 mi SE 6.9 mph - N/A   Clear
10:55 PM 57.2 °F 44.6 °F 63% 30.22 in 10.0 mi SE 6.9 mph - N/A   Clear
11:15 PM 55.4 °F 46.4 °F 72% 30.22 in 10.0 mi SE 6.9 mph - N/A   Clear
11:55 PM 55.4 °F 46.4 °F 72% 30.22 in 10.0 mi ESE 9.2 mph - N/A   Clear